Location: Dattensoll
(49.9928°N, 9.8954°E)
Time: 05:29:40
(UTC+00:00)

IKONOS-2 - Pass Details

Date: 19 May 2025
Orbit: 576 x 585 km, 98.2° (Epoch: 14 June)

Event Time Altitude Azimuth Distance (km) Brightness Sun altitude
Rises 20:20:55 0° 15° (NNE) 2,806 8.4 -10.0°
Reaches altitude 10° 20:23:05 10° 18° (NNE) 1,903 7.5 -10.2°
Maximum altitude 20:27:12 72° 103° (ESE) 614 4.4 -10.6°
Drops below altitude 10° 20:31:18 10° 188° (S) 1,891 6.7 -11.0°
Enters shadow 20:32:19 - 190° (S) 2,316 7.1 -11.2°
